DELTA 1 DEB, 9978

Orbit data source: Space-Track

DELTA 1 DEB, 9978 is space debris in SSO originally from a launch on Tue, 06 Nov 1973 UTC launched from the Air Force Western Test Range (AFWTR). Debris objects in space refer to the collection of defunct objects orbiting the Earth. Examples of debris include non-operational satellites, rocket bodies, and fragments generated from explosions, collisions, or faulty payload assembly.

Loading next visibility...
Identifier
9978, 1973-086GH
Orbit
SSO
Country
Flag of USUS
Related business
Manufacturer
Unknown
Mission
Spacecraft
Bus & Motor
Unknown
Mass
Unknown
Launch date (UTC)
1973-11-06 (52 years ago)
Launch vehicle
Unknown
Launch site
Air Force Western Test Range (AFWTR)
Object type
Payload
Rocket body
Debris
Shape & HBR
Unknown shape, 0.1 m
Radar Cross Section
Small (<0.1 m²)

Expand to show TLE details & history
Last TLE update: 3 days ago

TLE from 3 days ago
0 DELTA 1 DEB
1 09978U 73086GH  26121.35491924  .00000212  00000-0  20878-2 0  9998
2 09978 102.0712  64.6939 0054284  36.5124 116.0019 12.32951472286885
Epoch: 2026-05-01T08:31Z
TLE epoch observation values (Epoch: 2026-05-01T08:31:05.022Z)
Latitude
26.32065°
Longitude
-96.32231°
Altitude
1,558.525 km
Speed
7.082 km/s
True Right ascension
16h 42m 56s
True Declination
26° 11' 53"
Sunlit
Object was in full shadow at epoch
Visualization orbit readout
Latitude
Unknown
Longitude
Unknown
Altitude
Unknown
Speed
Unknown
Apparent Right ascension
Unknown
Apparent Declination
Unknown
Sunlit
N/A
Visualization observer readout
Local Sidereal Time
01:35:05
Azimuth
Unknown
Elevation
Unknown
Doppler factor
Unknown
Orbital elements
Apogee altitude
1,577.164 km
Perigee altitude
1,491.262 km
Semi-major axis
7,912.35 km
Eccentricity
0.00543
Inclination
102.0712°
RAAN
64.6939°
Arg. of periapsis
36.5124°
True anomaly
116.55932°
Mean anomaly
116.0019°
Eccentric anomaly
116.28078°
Mean motion
3.08379 °/min
Orbital period
116.74 mins
BSTAR
0.0020878
Loading maneuver chart data...
Computing Atmospheric mass density...
Loading historical data...
Loading historical data...
Loading historical data...
Loading historical data...
Loading historical data...
Loading historical data...
Loading historical data...

Documentation

Showing up to 5 results
|